Flag for United Kingdom Weather past 2 weeks in Aberdeen, Scotland, United Kingdom

Now
50 °F

Cool.


Feels Like: 50 °F
Forecast: 50 / 59 °F
Wind: 2 mph from North

Location: Aberdeen / Dyce

Current Time: Aug 30, 2015 at 1:35:29 AM

Latest Report: Aug 30, 2015 at 12:50 AM


Visibility: N/A

Pressure: 29.95 "Hg

Humidity: 88%

Dew point: 46 °F

Location of AberdeenLocation

Historic Weather in Aberdeen — Graph

°F

Aberdeen temperature yesterday

Maximum temperature yesterday: 66 °F (at 12:50 PM)
Minimum temperature yesterday: 54 °F (at 5:20 AM)
Average temperature yesterday: 59 °F

Past Weeks' High & Low Weather Summary

 TemperatureHumidityPressure
High68 °F (Aug 19, 4:20 PM)100% (Aug 15, 11:20 AM)30.12 "Hg (Aug 15, 11:20 AM)
Low41 °F (Aug 17, 6:20 AM)46% (Aug 17, 2:20 PM)29.24 "Hg (Aug 26, 3:50 PM)
Average57 °F85%29.77 "Hg
* Reported Aug 15 12:20 AM — Aug 30 12:20 AM, Aberdeen, Weather by CustomWeather, © 2015

Note: Actual official high and low records may vary slightly from our data, if they occured in-between our weather recording intervals... More about our weather records

Advertising

Aberdeen weather history for previous 24 hours

 ConditionsComfort  
Time TempWeatherWind HumidityBarometerVisibility
12:20 AM
Sun, Aug 30
50 °FCool.6 mph88%29.95 "HgN/A
11:50 PM
Sat, Aug 29
54 °FClear.2 mph82%29.95 "Hg10 mi
11:20 PM54 °FClear.2 mph82%29.95 "Hg10 mi
10:20 PM55 °FClear.3 mph77%29.95 "Hg10 mi
9:50 PM55 °FClear.8 mph77%29.95 "Hg10 mi
9:20 PM57 °FClear.8 mph72%29.92 "Hg10 mi
8:50 PM57 °FSunny.8 mph77%29.92 "Hg10 mi
8:20 PM59 °FPassing clouds.7 mph72%29.92 "HgN/A
7:50 PM59 °FPassing clouds.7 mph72%29.92 "HgN/A
7:20 PM59 °FSunny.6 mph72%29.89 "Hg10 mi
6:50 PM61 °FPassing clouds.10 mph63%29.89 "HgN/A
6:20 PM63 °FPassing clouds.9 mph64%29.89 "HgN/A
5:50 PM63 °FScattered clouds.8 mph64%29.89 "HgN/A
5:20 PM63 °FPassing clouds.13 mph59%29.89 "HgN/A
4:50 PM63 °FPassing clouds.14 mph64%29.89 "HgN/A
4:20 PM64 °FPassing clouds.14 mph56%29.89 "HgN/A
3:50 PM64 °FScattered clouds.15 mph60%29.86 "HgN/A
3:20 PM66 °FScattered clouds.15 mph56%29.86 "HgN/A
2:50 PM64 °FScattered clouds.15 mph56%29.86 "HgN/A
2:20 PM66 °FScattered clouds.13 mph56%29.86 "HgN/A
1:50 PM64 °FScattered clouds.20 mph56%29.86 "HgN/A
1:20 PM64 °FScattered clouds.17 mph56%29.86 "HgN/A
12:50 PM66 °FScattered clouds.15 mph56%29.86 "HgN/A
12:20 PM64 °FScattered clouds.17 mph56%29.86 "HgN/A
11:50 AM64 °FScattered clouds.14 mph60%29.86 "HgN/A
11:20 AM64 °FPassing clouds.14 mph60%29.86 "HgN/A
10:50 AM63 °FPassing clouds.14 mph64%29.86 "HgN/A
10:20 AM63 °FPassing clouds.16 mph64%29.83 "HgN/A
9:50 AM61 °FPassing clouds.15 mph68%29.83 "HgN/A
8:50 AM59 °FPassing clouds.18 mph72%29.83 "HgN/A
8:20 AM59 °FPassing clouds.17 mph72%29.83 "HgN/A
7:50 AM57 °FSunny.12 mph77%29.83 "Hg10 mi
6:50 AM55 °FPassing clouds.10 mph82%29.80 "HgN/A
6:20 AM55 °FPassing clouds.6 mph82%29.80 "HgN/A
5:50 AM54 °FPassing clouds.7 mph82%29.80 "HgN/A
5:20 AM54 °FClear.8 mph82%29.80 "Hg10 mi
4:50 AM55 °FPassing clouds.9 mph82%29.80 "HgN/A
4:20 AM55 °FCool.9 mph82%29.80 "HgN/A
3:50 AM55 °FPassing clouds.6 mph82%29.80 "HgN/A
3:20 AM55 °FCool.5 mph82%29.80 "HgN/A
2:50 AM55 °FPassing clouds.5 mph82%29.80 "HgN/A
2:20 AM55 °FPassing clouds.5 mph82%29.80 "HgN/A
1:50 AM55 °FPassing clouds.3 mph82%29.80 "HgN/A
1:20 AM55 °FPassing clouds.3 mph82%29.80 "HgN/A
Weather by CustomWeather, © 2015

See weather overviewHow to use our weather pages